STARLINK-36053

Last updated on Mon Dec 15 2025 00:02:12 GMT+0000 (Coordinated Universal Time)

1 66875U 25281AD 25348.25003472 -.01545566 00000+0 -64741-2 0 9992 2 66875 43.0001 112.8368 0001413 265.9780 334.5381 15.87249770 1678
UTC large
Height (km)
Speed (km/s)
/
Latitude / Longitude
Inclination (degrees)
Orbital Period (minutes)
Azimuth
Elevation
Range (km)
Doppler Factor

Next 0 passes for location: London (51.5072 / 0.1276)

Sorry there are no passes over London.